This demonstration page uses our WeatherBlox Daily Observations layout. Learn more.

Left ArrowRight Arrow

39.12711, -84.51439

Hourly Observations for October 29, 2021

Temp ( °F °C ) Dew Point ( °F °C ) Humidity (%) Winds ( mph kmh ) Pressure ( in mb ) Visibility ( mi km ) Precip ( " mm )
12:21 am 00:21 Cloudy with Mist and Fog 54 12.2 54 12.2 100 100 Calm 29.53 1000 2 3 0.00 0.00
12:40 am 00:40 Cloudy 55 12.8 55 12.8 100 100 N 3 6 29.51 999 7 11 0.00 0.00
12:53 am 00:53 Mostly Cloudy with Mist and Fog 53 11.7 53 11.7 100 100 Calm 29.50 999 1 2 0.00 0.00
1:01 am 01:01 Mostly Cloudy with Fog 53 11.7 53 11.7 100 100 ESE 3 6 29.51 999 1 1 0.00 0.00
1:09 am 01:09 Cloudy with Mist and Fog 54 12.2 54 12.2 100 100 E 3 6 29.51 999 2 3 0.00 0.00
1:16 am 01:16 Cloudy 54 12.2 54 12.2 100 100 Calm 29.50 999 7 11 0.00 0.00
1:37 am 01:37 Cloudy 54 12.2 54 12.2 100 100 Calm 29.51 999 9 14 0.00 0.00
1:53 am 01:53 Cloudy 54 12.2 54 12.2 100 100 Calm 29.49 999 8 13 0.00 0.00
2:08 am 02:08 Cloudy 54 12.2 54 12.2 100 100 Calm 29.50 999 7 11 0.00 0.00
2:37 am 02:37 Cloudy 54 12.2 54 12.2 100 100 Calm 29.50 999 8 13 0.00 0.00
2:53 am 02:53 Cloudy 54 12.2 54 12.2 100 100 Calm 29.49 999 8 13 0.00 0.00
3:37 am 03:37 Cloudy 54 12.2 54 12.2 100 100 Calm 29.49 999 7 11 0.00 0.00
3:53 am 03:53 Cloudy with Mist and Fog 54 12.2 54 12.2 100 100 Calm 29.49 999 3 5 0.00 0.00
4:04 am 04:04 Cloudy with Mist and Fog 54 12.2 54 12.2 100 100 Calm 29.49 999 6 10 0.00 0.00
4:29 am 04:29 Cloudy 54 12.2 54 12.2 100 100 NNW 5 7 29.47 998 8 13 0.00 0.00
4:53 am 04:53 Cloudy 54 12.2 54 12.2 100 100 Calm 29.47 998 7 11 0.00 0.00
5:25 am 05:25 Cloudy with Mist and Fog 54 12.2 54 12.2 100 100 Calm 29.47 998 6 10 0.00 0.00
5:51 am 05:51 Cloudy with Mist and Fog 54 12 54 12 100 100 Calm 29.46 998 2 3 0.00 0.00
5:53 am 05:53 Cloudy with Mist and Fog 52 11.1 52 11.1 100 100 Calm 29.45 997 1 2 0.00 0.00
6:00 am 06:00 Cloudy with Fog 52 11.1 52 11.1 100 100 Calm 29.46 997 1 1 0.00 0.00
6:25 am 06:25 Cloudy with Mist and Fog 53 11.7 53 11.7 100 100 Calm 29.45 997 1 2 0.00 0.00
6:34 am 06:34 Cloudy with Mist and Fog 53 11.7 53 11.7 100 100 Calm 29.45 997 3 5 0.00 0.00
6:53 am 06:53 Cloudy 54 12.2 54 12.2 100 100 Calm 29.45 997 10 16 0.00 0.00
7:10 am 07:10 Cloudy 54 12.2 54 12.2 100 100 N 5 7 29.45 997 9 14 0.00 0.00
7:15 am 07:15 Cloudy 54 12.2 54 12.2 100 100 Calm 29.45 997 8 13 0.00 0.00
7:36 am 07:36 Mostly Cloudy 54 12.2 54 12.2 100 100 Calm 29.44 997 9 14 0.00 0.00
7:45 am 07:45 Mostly Cloudy 53 11.7 53 11.7 100 100 Calm 29.44 997 2 2 0.00 0.00
7:53 am 07:53 Cloudy 53 11.7 53 11.7 100 100 Calm 29.44 997 7 11 0.00 0.00
8:07 am 08:07 Cloudy 53 11.7 53 11.7 100 100 Calm 29.45 997 7 11 0.00 0.00
8:30 am 08:30 Cloudy with Mist and Fog 53 11.7 53 11.7 100 100 Calm 29.46 998 4 6 0.00 0.00
8:43 am 08:43 Cloudy with Mist and Fog 54 12.2 54 12.2 100 100 Calm 29.46 998 4 6 0.00 0.00
8:53 am 08:53 Cloudy 55 12.8 55 12.8 100 100 Calm 29.46 998 7 11 0.00 0.00
9:37 am 09:37 Cloudy 55 12.8 55 12.8 100 100 Calm 29.47 998 8 13 0.00 0.00
9:53 am 09:53 Cloudy 56 13.3 56 13.3 100 100 Calm 29.47 998 8 13 0.00 0.00
10:53 am 10:53 Cloudy 57 13.9 57 13.9 100 100 Calm 29.46 998 8 13 0.00 0.00
11:53 am 11:53 Cloudy with Light Rain 58 14.4 56 13.3 93 93 W 3 6 29.45 997 8 13 0.00 0.00
12:53 pm 12:53 Cloudy with Light Rain 59 15 57 13.9 93 93 W 5 7 29.44 997 8 13 0.00 0.00
1:53 pm 13:53 Cloudy with Light Rain 59 15 57 13.9 93 93 SW 6 9 29.42 996 6 10 0.00 0.00
2:53 pm 14:53 Cloudy with Light Rain 59 15 58 14.4 96 96 W 6 9 29.41 996 4 6 0.07 1.78
3:53 pm 15:53 Cloudy with Light Rain 59 15 59 15 100 100 W 7 11 29.41 996 4 6 0.04 1.02
4:53 pm 16:53 Cloudy with Light Rain 59 15 59 15 100 100 W 3 6 29.42 996 4 6 0.05 1.27
5:53 pm 17:53 Cloudy with Light Rain 59 15 58 14.4 96 96 W 3 6 29.42 996 4 6 0.17 4.32
6:53 pm 18:53 Cloudy with Light Rain 59 15 58 14.4 96 96 VRB 3 6 29.42 996 4 6 0.06 1.52
7:53 pm 19:53 Cloudy with Light Rain 58 14.4 57 13.9 97 97 VRB 6 9 29.42 996 10 16 0.04 1.02
8:53 pm 20:53 Cloudy 58 14.4 57 13.9 97 97 NNW 3 6 29.43 997 10 16 0.02 0.51
9:53 pm 21:53 Cloudy 57 13.9 56 13.3 96 96 WNW 5 7 29.42 996 8 13 0.00 0.00
10:17 pm 22:17 Cloudy 57 13.9 57 13.9 100 100 W 3 6 29.44 997 10 16 0.01 0.25
10:53 pm 22:53 Cloudy with Light Rain 57 13.9 57 13.9 100 100 Calm 29.43 997 4 6 0.02 0.51
11:53 pm 23:53 Cloudy with Light Rain 56 13.3 56 13.3 100 100 Calm 29.42 996 8 13 0.02 0.51

Powered by AerisWeather